Powrót do katalogu

FENGYUN 1C DEB

AktywnySSO
NORAD 37921·DEBRIS·🇨🇳 China

Wystrzelony May 10, 1999 z Taiyuan Satellite Launch Center

Loading…

Następne Przeloty (najbliższe 24 godziny)

TLE

Starzejące sięSource: Space-Track

Epoka: Sep 9, 2026, 22:27 UTC

1 37921U 99025ENW 26252.93610384 -.00000075  00000-0 -23450-4 0  9990
2 37921  98.9894 292.6455 0084361  75.6143 285.4364 13.95293209669299

Śledź FENGYUN 1C DEB w czasie rzeczywistym z AllMySat

Download on the App Store